Location: Ch�risy
(50.2331°N, 2.9131°E)
Time: 02:25:15
(UTC+00:00)

USA 267 - Pass Details

Date: 17 January 2021
Orbit: 1102 x 1106 km, 123.0° (Epoch: 22 February)

Event Time Altitude Azimuth Distance (km) Brightness Sun altitude
Exits shadow 20:17:15 44° 241° (WSW) 1,482 4.1 -37.6°
Drops below altitude 10° 20:21:29 10° 241° (WSW) 2,959 5.9 -38.3°
Sets 20:23:57 0° 242° (WSW) 3,915 6.7 -38.7°
